Back to catalog

CENTISPACE-1 S5

AliveNavigationLEO
NORAD 54020·PAYLOAD·🇨🇳 China

Launched Oct 7, 2022 from Yellow Sea Launch Area

Loading…

Next Passes (next 24 hours)

TLE

FreshSource: Space-Track

Epoch: Sep 14, 2026, 10:42 UTC

1 54020U 22126A   26257.44595355  .00000541  00000-0  14079-3 0  9990
2 54020  54.9980 215.7358 0009963 271.2348  88.7505 14.63140700210106

Track CENTISPACE-1 S5 in real time with AllMySat

Download on the App Store